This demonstration page uses our WeatherBlox Daily Observations layout. Learn more.

Left ArrowRight Arrow

Hourly Observations for May 29, 2022

Temp ( °F °C ) Dew Point ( °F °C ) Humidity (%) Winds ( mph kmh ) Pressure ( in mb ) Visibility ( mi km ) Precip ( " mm )
12:15 am 00:15 Clear 66 19 61 16 83 83 W 3 6 29.98 1015 10 16 0.00 0.00
12:35 am 00:35 Clear 64 18 61 16 88 88 NW 5 7 29.99 1016 10 16 0.00 0.00
12:55 am 00:55 Clear 63 17 61 16 94 94 NW 8 13 29.99 1015 10 16 0.00 0.00
1:15 am 01:15 Clear 63 17 61 16 94 94 NNW 3 6 30.00 1016 10 16 0.00 0.00
1:35 am 01:35 Clear 64 18 61 16 88 88 N 5 7 29.98 1015 10 16 0.00 0.00
1:55 am 01:55 Clear 63 17 61 16 94 94 N 5 7 29.99 1015 10 16 0.00 0.00
2:15 am 02:15 Clear 63 17 59 15 88 88 NNW 6 9 29.99 1015 10 16 0.00 0.00
2:35 am 02:35 Clear 63 17 59 15 88 88 NNW 5 7 30.00 1016 10 16 0.00 0.00
2:55 am 02:55 Clear 63 17 59 15 88 88 Calm 30.00 1016 10 16 0.00 0.00
3:15 am 03:15 Clear 63 17 59 15 88 88 N 5 7 30.00 1016 10 16 0.00 0.00
3:35 am 03:35 Clear 61 16 59 15 94 94 Calm 30.00 1016 10 16 0.00 0.00
3:55 am 03:55 Clear 61 16 59 15 94 94 Calm 30.00 1016 10 16 0.00 0.00
4:15 am 04:15 Clear 59 15 59 15 100 100 Calm 30.01 1016 10 16 0.00 0.00
4:35 am 04:35 Clear 59 15 59 15 100 100 Calm 30.02 1017 10 16 0.00 0.00
4:55 am 04:55 Clear 59 15 59 15 100 100 Calm 30.03 1017 10 16 0.00 0.00
5:15 am 05:15 Clear 59 15 59 15 100 100 Calm 30.03 1017 10 16 0.00 0.00
5:35 am 05:35 Clear 57 14 57 14 100 100 Calm 30.05 1018 10 16 0.00 0.00
5:55 am 05:55 Sunny 55 13 55 13 100 100 Calm 30.05 1018 10 16 0.00 0.00
6:15 am 06:15 Sunny 55 13 55 13 100 100 Calm 30.06 1018 10 16 0.00 0.00
6:35 am 06:35 Sunny 57 14 57 14 100 100 Calm 30.07 1018 10 16 0.00 0.00
6:55 am 06:55 Sunny 59 15 59 15 100 100 Calm 30.08 1019 10 16 0.00 0.00
7:15 am 07:15 Sunny 61 16 59 15 94 94 NW 3 6 30.08 1019 10 16 0.00 0.00
7:35 am 07:35 Partly Cloudy 63 17 61 16 94 94 Calm 30.09 1019 10 16 0.00 0.00
7:55 am 07:55 Partly Cloudy 66 19 61 16 83 83 Calm 30.09 1019 10 16 0.00 0.00
8:15 am 08:15 Sunny 68 20 61 16 78 78 WNW 3 6 30.09 1019 10 16 0.00 0.00
8:35 am 08:35 Sunny 70 21 61 16 73 73 NNW 3 6 30.10 1019 10 16 0.00 0.00
8:55 am 08:55 Sunny 70 21 61 16 73 73 Calm 30.10 1019 10 16 0.00 0.00
9:15 am 09:15 Sunny 70 21 59 15 69 69 NNW 3 6 30.11 1020 10 16 0.00 0.00
9:35 am 09:35 Sunny 72 22 59 15 65 65 Calm 30.11 1020 10 16 0.00 0.00
9:55 am 09:55 Partly Cloudy 72 22 57 14 61 61 Calm 30.11 1020 10 16 0.00 0.00
10:15 am 10:15 Sunny 73 23 59 15 61 61 Calm 30.11 1020 10 16 0.00 0.00
10:35 am 10:35 Sunny 73 23 59 15 61 61 NNW 3 6 30.11 1020 10 16 0.00 0.00
10:55 am 10:55 Sunny 73 23 59 15 61 61 NNE 3 6 30.11 1020 10 16 0.00 0.00
11:15 am 11:15 Sunny 75 24 61 16 61 61 Calm 30.11 1019 10 16 0.00 0.00
11:35 am 11:35 Sunny 75 24 59 15 57 57 ENE 7 11 30.10 1019 10 16 0.00 0.00
11:55 am 11:55 Sunny 77 25 59 15 54 54 ENE 3 6 30.09 1019 10 16 0.00 0.00
12:15 pm 12:15 Partly Cloudy 77 25 61 16 57 57 NNE 5 7 30.09 1019 10 16 0.00 0.00
12:35 pm 12:35 Partly Cloudy 77 25 61 16 57 57 Calm 30.08 1019 10 16 0.00 0.00
12:55 pm 12:55 Partly Cloudy 77 25 61 16 57 57 Calm 30.08 1019 10 16 0.00 0.00
1:15 pm 13:15 Mostly Cloudy 77 25 61 16 57 57 S 3 6 30.08 1019 10 16 0.00 0.00
1:35 pm 13:35 Mostly Cloudy 79 26 61 16 54 54 Calm 30.08 1019 10 16 0.00 0.00
1:55 pm 13:55 Mostly Cloudy 79 26 61 16 54 54 SW 6 9 30.08 1019 10 16 0.00 0.00
2:15 pm 14:15 Partly Cloudy 81 27 63 17 54 54 WSW 8 13 30.08 1019 10 16 0.00 0.00
2:35 pm 14:35 Partly Cloudy 79 26 59 15 51 51 SSW 3 6 30.07 1018 10 16 0.00 0.00
2:55 pm 14:55 Partly Cloudy 81 27 61 16 51 51 Calm 30.07 1018 10 16 0.00 0.00
3:15 pm 15:15 Mostly Cloudy 81 27 61 16 51 51 WSW 7 11 30.07 1018 10 16 0.00 0.00
3:35 pm 15:35 Partly Cloudy 81 27 61 16 51 51 SSW 6 9 30.06 1018 10 16 0.00 0.00
3:55 pm 15:55 Sunny 81 27 61 16 51 51 SE 6 9 30.06 1018 10 16 0.00 0.00
4:15 pm 16:15 Partly Cloudy 81 27 61 16 51 51 ESE 5 7 30.06 1018 10 16 0.00 0.00
4:35 pm 16:35 Mostly Cloudy 82 28 63 17 51 51 SSW 5 7 30.06 1018 10 16 0.00 0.00
4:55 pm 16:55 Partly Cloudy 82 28 61 16 48 48 SW 5 7 30.05 1018 10 16 0.00 0.00
5:15 pm 17:15 Sunny 82 28 61 16 48 48 WSW 6 9 30.05 1018 10 16 0.00 0.00
5:35 pm 17:35 Partly Cloudy 82 28 63 17 51 51 SW 6 9 30.05 1018 10 16 0.00 0.00
5:55 pm 17:55 Sunny 81 27 61 16 51 51 SSW 9 15 30.04 1017 10 16 0.00 0.00
6:15 pm 18:15 Sunny 81 27 61 16 51 51 SSW 6 9 30.04 1017 10 16 0.00 0.00
6:35 pm 18:35 Sunny 81 27 61 16 51 51 SSE 7 11 30.03 1017 10 16 0.00 0.00
6:55 pm 18:55 Sunny 81 27 63 17 54 54 SSW 5 7 30.04 1017 10 16 0.00 0.00
7:15 pm 19:15 Sunny 81 27 63 17 54 54 SW 5 7 30.04 1017 10 16 0.00 0.00
7:35 pm 19:35 Sunny 79 26 63 17 58 58 S 3 6 30.05 1018 10 16 0.00 0.00
7:55 pm 19:55 Sunny 79 26 63 17 58 58 S 3 6 30.04 1017 10 16 0.00 0.00
8:15 pm 20:15 Sunny 79 26 63 17 58 58 S 3 6 30.05 1018 10 16 0.00 0.00
8:35 pm 20:35 Clear 77 25 63 17 61 61 SSW 3 6 30.05 1018 10 16 0.00 0.00
8:55 pm 20:55 Clear 77 25 63 17 61 61 S 3 6 30.05 1018 10 16 0.00 0.00
9:15 pm 21:15 Clear 73 23 63 17 69 69 S 3 6 30.07 1018 10 16 0.00 0.00
9:35 pm 21:35 Clear 73 23 63 17 69 69 SSW 3 6 30.07 1018 10 16 0.00 0.00
9:55 pm 21:55 Clear 72 22 63 17 73 73 Calm 30.08 1019 10 16 0.00 0.00
10:15 pm 22:15 Clear 70 21 64 18 83 83 S 3 6 30.08 1019 10 16 0.00 0.00
10:35 pm 22:35 Clear 70 21 63 17 78 78 Calm 30.09 1019 10 16 0.00 0.00
10:55 pm 22:55 Clear 68 20 64 18 88 88 Calm 30.09 1019 10 16 0.00 0.00
11:15 pm 23:15 Clear 68 20 63 17 83 83 Calm 30.09 1019 10 16 0.00 0.00
11:35 pm 23:35 Clear 66 19 63 17 88 88 Calm 30.10 1019 10 16 0.00 0.00
11:55 pm 23:55 Clear 66 19 63 17 88 88 S 3 6 30.10 1019 10 16 0.00 0.00

Powered by AerisWeather